Estación de Las Lomillas - San Clemente

Ultimos registro cada 15 minutos 93
Estación Fecha / Hora Temperatura Humedad Lluvia Velocidad Dirección Radiación Presion
93 Las Lomillas - San Clemente 05-05-2026 23:00 13,4 85,3 0 0 22 0,6 975,6
92 Las Lomillas - San Clemente 05-05-2026 22:45 13,9 83,9 0 0 351 0,6 975,8
91 Las Lomillas - San Clemente 05-05-2026 22:30 13,4 85,7 0 0 331 0,6 975,9
90 Las Lomillas - San Clemente 05-05-2026 22:15 13,4 85,6 0 0 341 0,6 975,8
89 Las Lomillas - San Clemente 05-05-2026 22:00 12,7 88,4 0 0 331 0,6 976
88 Las Lomillas - San Clemente 05-05-2026 21:45 12,7 87,8 0 0 338 0,6 976
87 Las Lomillas - San Clemente 05-05-2026 21:30 12,9 86,4 0 0 338 0,6 976,5
86 Las Lomillas - San Clemente 05-05-2026 21:15 13,5 84,1 0 0 0 0,6 976
85 Las Lomillas - San Clemente 05-05-2026 21:00 13,4 84,7 0 0 6 0,6 975,9
84 Las Lomillas - San Clemente 05-05-2026 20:45 13,8 83,7 0 0 338 0,6 975,9
83 Las Lomillas - San Clemente 05-05-2026 20:30 13,9 83,9 0 0 333 0,6 976
82 Las Lomillas - San Clemente 05-05-2026 20:15 13,5 84,4 0 0 336 0,6 975,6
81 Las Lomillas - San Clemente 05-05-2026 20:00 14,5 80,8 0 0 340 0,6 976
80 Las Lomillas - San Clemente 05-05-2026 19:45 14,7 80,1 0 0 348 0,6 975,9
79 Las Lomillas - San Clemente 05-05-2026 19:30 14,6 80,3 0 0 347 0,6 975,8
78 Las Lomillas - San Clemente 05-05-2026 19:15 15,1 77,6 0 0 357 0,6 975,9
77 Las Lomillas - San Clemente 05-05-2026 19:00 15 78 0 0 355 0,6 975,7
76 Las Lomillas - San Clemente 05-05-2026 18:45 14,5 81,9 0 0 352 0,6 975,5
75 Las Lomillas - San Clemente 05-05-2026 18:30 14,8 81,9 0 0 352 0,6 975,5
74 Las Lomillas - San Clemente 05-05-2026 18:15 14,8 83,2 0 0 352 0,6 975,4
73 Las Lomillas - San Clemente 05-05-2026 18:00 15,3 81,1 0 0 352 0,6 975,3
72 Las Lomillas - San Clemente 05-05-2026 17:45 15,4 80,6 0 0 352 5,6 975
71 Las Lomillas - San Clemente 05-05-2026 17:30 15,4 83,6 0 0 352 15,6 975
70 Las Lomillas - San Clemente 05-05-2026 17:15 16 81,1 0 0 352 19,4 975,3
69 Las Lomillas - San Clemente 05-05-2026 17:00 15,8 82,5 0 0 352 24,4 974,9
68 Las Lomillas - San Clemente 05-05-2026 16:45 16,2 80,9 0 0 352 26,9 975,1
67 Las Lomillas - San Clemente 05-05-2026 16:30 16,9 77,6 0 0 352 36,9 974,8
66 Las Lomillas - San Clemente 05-05-2026 16:15 16,9 77,2 0 0 352 45,6 974,5
65 Las Lomillas - San Clemente 05-05-2026 16:00 17,4 76 0 0 352 51,9 974,3
64 Las Lomillas - San Clemente 05-05-2026 15:45 17,7 73,7 0 0 358 70,6 974,1
63 Las Lomillas - San Clemente 05-05-2026 15:30 18,2 72,7 0 0 330 95,6 973,9
62 Las Lomillas - San Clemente 05-05-2026 15:15 18,3 73 0 0 330 91,9 973,9
61 Las Lomillas - San Clemente 05-05-2026 15:00 18,6 73,8 0 0 327 115,6 973,8
60 Las Lomillas - San Clemente 05-05-2026 14:45 18,9 70,9 0 0 333 156,9 973,2
59 Las Lomillas - San Clemente 05-05-2026 14:30 19,3 69 0 0 341 208,1 973,1
58 Las Lomillas - San Clemente 05-05-2026 14:15 19,7 66,2 0 0 1 208,1 972,9
57 Las Lomillas - San Clemente 05-05-2026 14:00 19,9 65,3 0 0 348 304,4 972,9
56 Las Lomillas - San Clemente 05-05-2026 13:45 19,4 66,2 0 0 0 355,6 973,2
55 Las Lomillas - San Clemente 05-05-2026 13:30 19,1 65,9 0 0 140 254,4 973,4
54 Las Lomillas - San Clemente 05-05-2026 13:15 18,9 68,6 0 0 149 315,6 973,4
53 Las Lomillas - San Clemente 05-05-2026 13:00 18,8 69,2 0 0 337 279,4 973,7
52 Las Lomillas - San Clemente 05-05-2026 12:45 18,7 69,8 0 0 330 275,6 973,9
51 Las Lomillas - San Clemente 05-05-2026 12:30 19 70,7 0 0 330 271,9 973,8
50 Las Lomillas - San Clemente 05-05-2026 12:15 18,8 67,4 0 0 333 224,4 973,8
49 Las Lomillas - San Clemente 05-05-2026 12:00 18,8 67,3 0 0 345 230,6 973,8
48 Las Lomillas - San Clemente 05-05-2026 11:45 19,1 69,1 0 0 338 216,9 973,9
47 Las Lomillas - San Clemente 05-05-2026 11:30 18,6 68,9 0 0 323 285,6 974
46 Las Lomillas - San Clemente 05-05-2026 11:15 18,7 70,7 0 0 216 305,6 973,9
45 Las Lomillas - San Clemente 05-05-2026 11:00 17,5 76 0 0 216 216,9 974,3
44 Las Lomillas - San Clemente 05-05-2026 10:45 17,2 76 0 0 212 185,6 974,3
43 Las Lomillas - San Clemente 05-05-2026 10:30 16,8 76,5 0 0 215 174,4 974,3
42 Las Lomillas - San Clemente 05-05-2026 10:15 16,3 77,5 0 0 314 329,4 973,9
41 Las Lomillas - San Clemente 05-05-2026 10:00 15,5 78,4 0 0 171 180,6 974,3
40 Las Lomillas - San Clemente 05-05-2026 09:45 14,9 81,6 0 0 317 153,1 974,5
39 Las Lomillas - San Clemente 05-05-2026 09:30 14,2 83,3 0 0 317 140,6 974,8
38 Las Lomillas - San Clemente 05-05-2026 09:15 14,5 80,7 0 0 133 109,4 975
37 Las Lomillas - San Clemente 05-05-2026 09:00 12,9 88,7 0 0 188 84,4 974,9
36 Las Lomillas - San Clemente 05-05-2026 08:45 12,1 92,3 0 0 149 50,6 975,4
35 Las Lomillas - San Clemente 05-05-2026 08:30 11,8 91,5 0 0 195 43,1 975,9
34 Las Lomillas - San Clemente 05-05-2026 08:15 11,8 89,7 0 0 215 40,6 975,4
33 Las Lomillas - San Clemente 05-05-2026 08:00 12,1 86,3 0 0 248 25,6 975
32 Las Lomillas - San Clemente 05-05-2026 07:45 11,9 87,9 0 0 184 13,1 974,8
31 Las Lomillas - San Clemente 05-05-2026 07:30 11,7 89,1 0 0 163 3,1 975,1
30 Las Lomillas - San Clemente 05-05-2026 07:15 11,4 88,8 0 0 194 0,6 975,9
29 Las Lomillas - San Clemente 05-05-2026 07:00 12 86,3 0 0 309 0,6 975,4
28 Las Lomillas - San Clemente 05-05-2026 06:45 12,4 83,6 0 0 194 0,6 974,7
27 Las Lomillas - San Clemente 05-05-2026 06:30 12,3 83,7 0 0 293 0,6 976
26 Las Lomillas - San Clemente 05-05-2026 06:15 12,3 84,6 0 0 323 0,6 975,3
25 Las Lomillas - San Clemente 05-05-2026 06:00 11,9 87,9 0 0 329 0,6 976,6
24 Las Lomillas - San Clemente 05-05-2026 05:45 12,6 84,9 0 0 209 0,6 975,6
23 Las Lomillas - San Clemente 05-05-2026 05:30 13 82,8 0 0 194 0,6 975,7
22 Las Lomillas - San Clemente 05-05-2026 05:15 12,4 87,2 0 0 230 0,6 976,1
21 Las Lomillas - San Clemente 05-05-2026 05:00 12 89,2 0 0 205 0,6 976,6
20 Las Lomillas - San Clemente 05-05-2026 04:45 12,5 87,8 0 0 205 0,6 976,5
19 Las Lomillas - San Clemente 05-05-2026 04:30 11,8 89,5 0 0 218 0,6 976,5
18 Las Lomillas - San Clemente 05-05-2026 04:15 11,6 90,3 0 0 199 0,6 976,2
17 Las Lomillas - San Clemente 05-05-2026 04:00 12,1 90,7 0 0 201 0,6 976
16 Las Lomillas - San Clemente 05-05-2026 03:45 10,6 94,5 0 0 194 0,6 976,1
15 Las Lomillas - San Clemente 05-05-2026 03:30 10,5 95,3 0 0 192 0,6 975,8
14 Las Lomillas - San Clemente 05-05-2026 03:15 10,6 94,5 0 0 191 0,6 976,1
13 Las Lomillas - San Clemente 05-05-2026 03:00 10,4 94,7 0 0 191 0,6 976,1
12 Las Lomillas - San Clemente 05-05-2026 02:45 10,3 94,8 0 0 191 0,6 976,2
11 Las Lomillas - San Clemente 05-05-2026 02:30 10,4 93,4 0 0 191 0,6 976,2
10 Las Lomillas - San Clemente 05-05-2026 02:15 11,1 92,9 0 0 191 0,6 976,6
9 Las Lomillas - San Clemente 05-05-2026 02:00 10,6 93,3 0 0 191 0,6 976,5
8 Las Lomillas - San Clemente 05-05-2026 01:45 10,6 93,5 0 0 191 0,6 976,6
7 Las Lomillas - San Clemente 05-05-2026 01:30 10,3 93,4 0 0 191 0,6 976,7
6 Las Lomillas - San Clemente 05-05-2026 01:15 10,3 93,2 0 0 191 0,6 976,7
5 Las Lomillas - San Clemente 05-05-2026 01:00 10,7 91,9 0 0 191 0,6 976,9
4 Las Lomillas - San Clemente 05-05-2026 00:45 10,9 92,7 0 0 191 0,6 976,9
3 Las Lomillas - San Clemente 05-05-2026 00:30 10,4 92,7 0 0 212 0,6 977,1
2 Las Lomillas - San Clemente 05-05-2026 00:15 11,7 91,2 0 0 213 0,6 977,1
1 Las Lomillas - San Clemente 05-05-2026 00:00 11,3 94,5 0 0 215 0,6 977,2